Regional Weather Roundup
Issued by NWS

Home | Current Version | Previous Version | Graphics & Text | Print | Product List | Glossary On
Versions: 1 2 3 4 5 6 7 8 9 10 11 12 13 14 15 16 17 18 19 20 21 22 23 24 25 26 27 28 29 30 31 32 33 34 35 36 37 38 39 40 41 42 43 44 45 46 47 48 49 50
000
ASUS45 KABQ 240301
RWRNM
WEATHER ROUNDUP FOR NEW MEXICO
NATIONAL WEATHER SERVICE ALBUQUERQUE NM
900 PM MDT THU OCT 23 2014

NOTE: "FAIR" MEANS FEW OR NO CLOUDS BELOW 12,000 FEET AGL WITH NO
       SIGNIFICANT WEATHER OR OBSTRUCTIONS TO VISION.

      THIS PRODUCT IS RELEASED AS TWO VERSIONS.  ONE VERSION NEAR
      THE TOP OF THE HOUR CONTAINING PRELIMINARY DATA FROM ALBUQUERQUE
      AND OTHER STATIONS.  A FINAL VERSION WITH ADDITIONAL DATA IS
      ISSUED ABOUT 10 MINUTES AFTER THE HOUR.

NMZ501-503-504-510>518-240400-
NORTHWEST PLATEAU/NORTHCENTRAL MOUNTAINS

CITY           SKY/WX    TMP DP  RH WIND       PRES   REMARKS
FARMINGTON     CLEAR     51  31  46 CALM      30.24S
LOS ALAMOS     CLEAR     59  28  29 W5        30.34S
SANTA FE       CLEAR     54  33  45 NE7       30.27S
TAOS           CLEAR     46  28  49 E9        30.34R
ANGEL FIRE     FAIR      37  29  72 CALM      30.40R

$$
NMZ402-403-502-505>509-240400-
WESTCENTRAL MOUNTAINS/SOUTHWEST MOUNTAINS

CITY           SKY/WX    TMP DP  RH WIND       PRES   REMARKS
GALLUP         PTCLDY    53  35  50 CALM      30.31R
SILVER CITY    CLEAR     57  46  67 N5        30.27R

$$
NMZ407-409-411-412-240400-
SOUTHERN DESERTS

CITY           SKY/WX    TMP DP  RH WIND       PRES   REMARKS
LORDSBURG      FAIR      59  43  55 MISG      30.18R
DEMING         CLEAR     62  50  64 CALM      30.19R
LAS CRUCES     CLEAR     64  53  67 W6        30.21R
HOLLOMAN AFB   CLEAR     64  49  59 NE5       30.17R
T OR C         CLEAR     65  46  50 W5        30.20R

$$
NMZ519>523-240400-
CENTRAL VALLEYS/CENTRAL HIGHLANDS

CITY           SKY/WX    TMP DP  RH WIND       PRES   REMARKS
ALBUQUERQUE    PTCLDY    66  35  31 S5        30.25R
DOUBLE EAGLE   CLEAR     55  34  44 W6        30.27R
MORIARTY ARPT  FAIR      49  37  64 SW6       30.29R
CLINES CORNERS CLEAR     53  32  44 W13       30.30R
BELEN          NOT AVBL
SOCORRO        FAIR      63  43  48 SW3       30.21S

$$
NMZ524>526-539-540-240400-
SOUTHCENTRAL MOUNTAINS

CITY           SKY/WX    TMP DP  RH WIND       PRES   REMARKS
RUIDOSO        CLEAR     55  37  50 N5        30.34R

$$
NMZ527>531-240400-
NORTHEAST HIGHLANDS/NORTHEAST PLAINS

CITY           SKY/WX    TMP DP  RH WIND       PRES   REMARKS
LAS VEGAS      CLEAR     53  30  41 N7        30.29R
RATON          CLEAR     53  36  52 N8        30.26R
CLAYTON        CLEAR     56  45  66 CALM      30.18S

$$
NMZ532>537-240400-
EASTCENTRAL PLAINS

CITY           SKY/WX    TMP DP  RH WIND       PRES   REMARKS
TUCUMCARI      CLEAR     59  42  53 CALM      30.12R
CANNON AFB     CLEAR     64  49  58 W8        30.16R
CLOVIS AIRPORT CLEAR     63  46  55 W9        30.18R

$$
NMZ028-029-538-240400-
SOUTHEAST PLAINS

CITY           SKY/WX    TMP DP  RH WIND       PRES   REMARKS
ROSWELL        CLEAR     62  58  86 SW6       30.13R
CARLSBAD       CLEAR     62  57  83 SW6       30.12R
HOBBS          CLEAR     63  55  77 MISG      30.16S


$$



USA.gov is the U.S. government's official web portal to all federal, state and local government web resources and services.